Overview Statistics Trail Chart Weather Telemetry Raw packets
 

This is the latest recevied weather packets stored in our database for station/object KU4DD. If no packets are shown the sender has not sent any weather packets the latest 10 day(s).

<< 3 4 5 6 7 8 9 >>
Time Temp. Humidity Pressure Rain* Wind** Luminosity Snow
1788441514 28.33° C 81% 1017.6 hPa 0 mm - 404 W/m² -
1788440279 27.78° C 83% 1017.6 hPa 0 mm - 338 W/m² -
1788438422 26.67° C 88% 1017.9 hPa 0 mm - 234 W/m² -
1788438107 26.11° C 89% 1017.9 hPa 0 mm - 216 W/m² -
1788433797 24.44° C 92% 1017.6 hPa 0 mm - 19 W/m² -
1788433475 24.44° C 92% 1017.6 hPa 0 mm - 14 W/m² -
1788426996 25° C 91% 1016.9 hPa 0 mm - 0 W/m² -
1788422657 25° C 92% 1016.6 hPa 0 mm - 0 W/m² -
1788420173 25° C 93% 1016.6 hPa 0 mm - 0 W/m² -
1788418324 25° C 92% 1016.6 hPa 0 mm - 0 W/m² -
1788415537 26.11° C 90% 1016.6 hPa 0 mm - 0 W/m² -
1788414917 26.11° C 90% 1016.9 hPa 0 mm - 0 W/m² -
1788413973 26.11° C 90% 1016.9 hPa 0 mm - 0 W/m² -
1788412416 26.67° C 90% 1016.9 hPa 0 mm - 0 W/m² -
1788412096 26.67° C 90% 1016.9 hPa 0 mm - 0 W/m² -
1788401609 28.89° C 76% 1016.6 hPa 0 mm - 0 W/m² -
1788401282 28.89° C 76% 1016.6 hPa 0 mm - 0 W/m² -
1788399438 28.33° C 82% 1016.9 hPa 0 mm - 0 W/m² -
1788399123 28.33° C 82% 1016.9 hPa 0 mm - 0 W/m² -
1788395691 29.44° C 79% 1016.6 hPa 0 mm - 0 W/m² -
1788395066 29.44° C 78% 1016.3 hPa 0 mm - 0 W/m² -
1788394749 29.44° C 77% 1016.3 hPa 0 mm - 0 W/m² -
1788393198 31.11° C 75% 1015.9 hPa 0 mm - 0 W/m² -
1788391652 32.78° C 69% 1015.9 hPa 0 mm - 11 W/m² -
1788390725 34.44° C 61% 1016.3 hPa 0 mm - 28 W/m² -

* Rain latest hour (hover to see other rain measurements)
** Current wind speed in m/s (hover to see current wind gust speed)